Showing default

KAZSCISAT-1, 43787

Orbit data source: Space-Track

KAZSCISAT-1, 43787 is a payload satellite owned by Ghalam LLP (KZ) in SSO that was launched on Mon, 03 Dec 2018 UTC via an FALCON 9 launch vehicle from the Air Force Western Test Range (AFWTR). Payloads include a variety of satellites, spacecraft, and rockets equipped with specific instruments for various scientific and technological missions. These include communications satellites like Starlink; space stations such as the ISS; scientific satellites like the Hubble; Earth observation satellites from companies like Planet Labs, Umbra, and HawkEye 360; GPS; miniature CubeSats for education and research; and military/defense satellites.

Loading next visibility...
KAZSCISAT-1 details
Identifier
43787, 2018-099AF
Orbit
SSO
Last TLE update17 hours ago
Origin
Flag of KZGhalam LLP (KZ / KAZ)
ManufacturerGhalam LLP
MissionOperational Commercial Science
Bus & MotorCUBESAT 3U, Unknown motor
Mass4 kg wet, 4 kg dry
Launch date (UTC)
2018-12-03 (6 years ago)
Launch vehicle
FALCON 9
Launch site
Air Force Western Test Range (AFWTR)
Object type
Payload
Rocket body
Debris
Shape & HBRBox, 0.3 m
Radar Cross Section0.035 m², Small (<0.1 m²)

Expand to show TLE details & history

TLE from 17 hours ago
0 KAZSCISAT-1
1 43787U 18099AF  24339.42380618  .00061722  00000-0  21239-2 0  9996
2 43787  97.4834  38.7162 0005107  75.5981 284.5825 15.29822666328803
Epoch: 2024-12-04T10:10Z
Definitive object data (Epoch: 2024-12-04T10:10:16.853Z)
Latitude-0.00013°
Longitude172.42683°
Altitude478.564 km
Speed7.627 km/s
True Right ascension02h 34m 51s
True Declination0° 00' 00"
Sunlit
Object was in full shadow at TLE epoch
Visualization TLE readout
Latitude-38.16294°
Longitude179.03667°
Altitude491.97 km
Speed7.617 km/s
Apparent Right ascension07h 20m 47s
Apparent Declination-73° 31' 45"
Sunlit
Object is in full shadow
Visualization observer readout
Local Sidereal Time01:13:29
Azimuth158.777° S
Elevation-38.48°
Doppler factor1
Orbital elements
Apogee altitude476.797 km
Perigee altitude469.799 km
Semi-major axis6,851.435 km
Eccentricity0.0005107
Inclination97.4834°
RAAN38.7162°
Arg. of periapsis75.5981°
True anomaly284.52585°
Mean anomaly284.5825°
Eccentric anomaly284.55418°
Mean motion3.82711 °/min
BSTAR0.0021239
Orbital period94.07 mins
Loading maneuver chart data...
Loading historical data...
Loading historical data...
Loading historical data...
Loading historical data...
Loading historical data...
Loading historical data...
Loading historical data...

KAZSCISAT-1 Visibility forecast

Observer location: undefined°, undefined

Span
Click to sort rows by Start time (UTC) header in descending order
Start Az.
Max El. time (UTC)
Max El. Az.
Max El.
End time (UTC)
End Az.
5 mins2024-12-05 03:35:17.152Z119.744° SE2024-12-05 03:37:17.152Z73.487° E23.985°2024-12-05 03:40:17.152Z13.389° NNE
4 mins2024-12-05 16:35:17.152Z57.055° ENE2024-12-05 16:36:17.152Z88.509° E28.781°2024-12-05 16:39:17.152Z161.052° S
|